SID,Date,Time,pH,Iron,Mn,Color,Turbidity,Analyst
28584,01/01/1995,"0645      ",5.86,0.77,0.340,79,0.59, 
28585,01/02/1995,"0715      ",5.83,0.81,0.290,78,0.60, 
28586,01/03/1995,"0643      ",5.90,0.82,0.360,73,0.67, 
28587,01/04/1995,"0800      ",5.90,0.78,0.310,83,0.89, 
28588,01/05/1995,"0647      ",5.91,0.80,0.380,75,0.67, 
28589,01/06/1995,"0655      ",5.96,0.81,0.360,77,0.66, 
28590,01/07/1995,"0820      ",5.97,0.80,0.370,78,0.66, 
28591,01/08/1995,"0645      ",5.98,0.83,0.380,82,0.70, 
28592,01/09/1995,"0705      ",6.02,0.81,0.300,77,0.61, 
28593,01/10/1995,"0700      ",5.95,0.81,0.350,76,0.68, 
28594,01/11/1995,"0658      ",5.95,0.82,0.280,79,0.64, 
28595,01/12/1995,"0713      ",5.98,0.83,0.350,85,0.80, 
28596,01/13/1995,"0702      ",5.97,0.79,0.340,86,0.74, 
28597,01/14/1995,"0710      ",5.97,0.81,0.380,89,0.82, 
28598,01/15/1995,"0635      ",5.99,0.79,0.350,85,0.75, 
28599,01/16/1995,"0720      ",5.93,0.80,0.250,73,0.59, 
28600,01/17/1995,"0700      ",5.90,0.76,0.330,73,0.58, 
28601,01/18/1995,"0739      ",5.92,0.85,0.330,79,0.95, 
28602,01/19/1995,"0730      ",5.86,0.78,0.300,81,0.58, 
28603,01/20/1995,"0702      ",5.89,0.70,0.320,85,0.60, 
28604,01/21/1995,"0730      ",5.92,0.81,0.250,86,0.55, 
28605,01/22/1995,"0640      ",5.94,0.78,0.300,81,0.70, 
28606,01/23/1995,"0704      ",5.89,0.81,0.300,91,0.79, 
28607,01/24/1995,"0702      ",5.94,0.80,0.290,91,0.70, 
28608,01/25/1995,"0650      ",5.95,0.80,0.190,92,0.62, 
28609,01/26/1995,"0706      ",5.88,0.79,0.280,98,0.63, 
28610,01/27/1995,"0655      ",5.93,0.89,0.210,103,0.91, 
28611,01/28/1995,"0710      ",5.84,0.85,0.260,98,0.63, 
28612,01/29/1995,"0640      ",5.90,0.86,0.290,94,0.80, 
28613,01/30/1995,"0655      ",5.92,0.80,0.320,91,0.56, 
28614,01/31/1995,"0715      ",5.85,0.81,0.310,86,0.54, 
28615,02/01/1995,"0700      ",5.90,0.85,0.300,89,0.76, 
28616,02/02/1995,"0657      ",5.90,0.76,0.300,81,0.54, 
28617,02/03/1995,"0655      ",5.88,0.72,0.290,76,0.43, 
28618,02/04/1995,"0730      ",5.89,0.76,0.150,89,0.50, 
28619,02/05/1995,"0635      ",5.90,0.75,0.260,78,0.52, 
28620,02/06/1995,"0657      ",5.90,0.73,0.320,64,0.55, 
28621,02/07/1995,"0845      ",5.92,0.74,0.050,59,0.55, 
28622,02/08/1995,"0708      ",5.87,0.73,0.360,57,0.49, 
28623,02/09/1995,"0658      ",5.92,0.71,0.330,52,0.46, 
28624,02/10/1995,"0733      ",5.87,0.78,0.310,53,0.54, 
28625,02/11/1995,"0820      ",5.80,0.72,0.250,52,0.40, 
28626,02/12/1995,"0640      ",6.13,0.79,0.360,67,0.60, 
28627,02/13/1995,"0653      ",5.90,0.73,0.330,50,0.46, 
28628,02/14/1995,"0654      ",5.84,0.71,0.340,49,0.57, 
28629,02/15/1995,"0655      ",5.87,0.73,0.350,44,0.42, 
28630,02/16/1995,"0655      ",5.84,0.73,0.370,40,0.47, 
28631,02/17/1995,"0655      ",5.89,0.77,0.430,40,0.52, 
28632,02/18/1995,"0715      ",5.82,0.79,0.400,42,0.50, 
28633,02/19/1995,"0640      ",5.87,0.77,0.400,46,0.55, 
28634,02/20/1995,"0730      ",5.72,0.75,0.350,41,0.40, 
28635,02/21/1995,"0750      ",5.85,0.77,0.240,40,0.45, 
28636,02/22/1995,"0745      ",5.84,0.70,0.300,39,0.55, 
28637,02/23/1995,"0655      ",5.95,0.75,0.380,39,0.58, 
28638,02/24/1995,"0745      ",5.86,0.75,0.280,40,0.55, 
28639,02/25/1995,"0730      ",5.85,0.74,0.190,36,0.45, 
28640,02/26/1995,"0700      ",5.91,0.79,0.230,40,0.53, 
28641,02/27/1995,"0650      ",5.92,0.72,0.290,38,0.65, 
28642,02/28/1995,"0718      ",5.88,0.73,0.420,37,0.50, 
28643,03/01/1995,"0655      ",5.88,0.72,0.380,35,0.50, 
28644,03/02/1995,"0655      ",5.87,0.73,0.330,35,0.51, 
28645,03/03/1995,"0653      ",5.94,0.71,0.370,33,0.50, 
28646,03/04/1995,"0650      ",5.81,0.59,0.800,30,0.59, 
28647,03/05/1995,"0700      ",5.86,0.73,0.470,34,0.64, 
28648,03/06/1995,"0705      ",5.91,0.74,0.200,31,0.45, 
28649,03/08/1995,"0700      ",5.90,0.73,0.340,36,0.56, 
28650,03/09/1995,"0700      ",5.85,0.74,0.360,34,0.51, 
28651,03/10/1995,"1300      ",5.91,0.70,0.320,34,0.50, 
28652,03/11/1995,"0700      ",5.88,0.73,0.370,37,0.45, 
28653,03/12/1995,"0658      ",5.90,0.78,0.350,40,0.51, 
28654,03/13/1995,"0652      ",5.85,0.72,0.140,40,0.40, 
28655,03/14/1995,"0805      ",5.89,0.74,0.350,40,0.42, 
28656,03/15/1995,"0800      ",5.90,0.70,0.410,40,0.49, 
28657,03/19/1995,"0650      ",5.93,0.74,0.430,48,0.56, 
28658,03/26/1995,"0710      ",5.98,0.81,0.510,50,0.63, 
28659,03/28/1995,"0812      ",5.86,0.76,0.360,77,0.48, 
28660,03/29/1995,"0826      ",5.74,0.79,0.390,59,0.40, 
28661,03/30/1995,"0830      ",5.81,0.74,0.310,62,0.42, 
28662,03/31/1995,"0740      ",5.91,0.72,0.190,59,0.35, 
28663,04/01/1995,"0800      ",5.84,0.75,0.300,57,0.25, 
28664,04/02/1995,"0700      ",5.87,0.77,0.310,53,0.32, 
28665,04/03/1995,"0815      ",5.85,0.77,0.380,57,0.47, 
28666,04/04/1995,"0720      ",5.92,0.76,0.500,56,0.36, 
28667,04/05/1995,"0700      ",5.89,0.78,0.360,51,0.39, 
28668,04/06/1995,"0713      ",5.77,0.77,0.390,48,0.54, 
28669,04/07/1995,"0658      ",5.78,0.80,0.350,48,0.49, 
28670,04/08/1995,"0720      ",5.89,0.76,0.220,48,0.40, 
28671,04/09/1995,"0650      ",5.84,0.82,0.270,46,0.43, 
28672,04/10/1995,"0710      ",5.90,0.79,0.310,45,0.48, 
28673,04/11/1995,"0654      ",5.93,0.76,0.340,40,0.46, 
28674,04/12/1995,"0656      ",5.97,0.75,0.380,41,0.47, 
28675,04/13/1995,"0704      ",5.88,0.77,0.340,40,0.50, 
28676,04/14/1995,"0652      ",5.91,0.73,0.360,42,0.46, 
28677,04/15/1995,"0639      ",5.93,0.74,0.370,44,0.52, 
28678,04/16/1995,"0647      ",5.91,0.78,0.370,49,0.58, 
28679,04/17/1995,"0700      ",5.90,0.79,0.360,50,0.45, 
28680,04/18/1995,"0658      ",5.90,0.82,0.400,48,0.58, 
28681,04/19/1995,"0657      ",5.85,0.88,0.400,51,0.99, 
28682,04/20/1995,"0652      ",5.92,0.78,0.360,41,0.62, 
28683,04/21/1995,"0812      ",5.87,0.78,0.210,49,0.65, 
28684,04/22/1995,"0700      ",5.73,0.81,0.360,54,0.50, 
28685,04/23/1995,"0700      ",5.78,0.78,0.320,48,0.61, 
28686,04/24/1995,"0650      ",5.85,0.82,0.380,53,0.66, 
28687,04/25/1995,"0645      ",5.88,0.85,0.210,58,0.82, 
28688,04/26/1995,"0650      ",5.91,0.93,0.330,54,0.90, 
28689,04/27/1995,"0815      ",5.92,0.83,0.370,53,0.64, 
28690,04/28/1995,"0730      ",5.96,0.88,0.410,52,0.60, 
28691,04/29/1995,"0655      ",5.81,0.84,0.300,60,0.74, 
28692,04/30/1995,"0715      ",5.83,0.89,0.400,70,0.76, 
28693,05/01/1995,"0700      ",5.81,0.87,0.420,50,0.69, 
28694,05/02/1995,"0742      ",5.85,0.81,0.390,50,0.69, 
28695,05/03/1995,"0700      ",5.91,0.80,0.390,54,0.61, 
28696,05/04/1995,"0707      ",5.90,0.85,0.340,59,0.76, 
28697,05/05/1995,"0717      ",5.87,0.80,0.380,56,0.62, 
28698,05/06/1995,"0730      ",5.91,0.81,0.150,57,0.50, 
28699,05/07/1995,"0738      ",5.92,0.82,0.290,53,0.65, 
28700,05/08/1995,"0700      ",5.85,0.85,0.400,56,0.72, 
28701,05/09/1995,"0725      ",5.89,0.90,0.390,56,0.79, 
28702,05/10/1995,"0654      ",5.91,0.92,0.370,55,0.80, 
28703,05/11/1995,"0652      ",5.88,0.83,0.390,52,0.60, 
28704,05/12/1995,"0707      ",5.90,0.84,0.360,54,0.74, 
28705,05/13/1995,"0710      ",5.96,0.82,0.360,53,0.50, 
28706,05/14/1995,"0700      ",5.98,0.80,0.340,52,0.61, 
28707,05/15/1995,"0707      ",5.91,0.84,0.400,47,0.72, 
28708,05/16/1995,"0857      ",5.87,0.82,0.410,48,0.70, 
28709,05/17/1995,"0646      ",5.88,0.88,0.390,49,0.79, 
28710,05/18/1995,"0650      ",5.94,0.84,0.430,51,0.79, 
28711,05/19/1995,"0655      ",5.90,0.85,0.410,51,0.78, 
28712,05/20/1995,"0705      ",5.90,0.83,0.320,47,0.65, 
28713,05/21/1995,"0645      ",5.98,0.99,0.510,62,1.00, 
28714,05/22/1995,"0655      ",5.88,0.90,0.380,55,0.84, 
28715,05/23/1995,"0658      ",5.92,0.91,0.400,53,0.78, 
28716,05/24/1995,"0656      ",5.94,0.91,0.420,54,0.79, 
28717,05/25/1995,"0730      ",5.95,0.90,0.420,53,0.87, 
28718,05/26/1995,"0727      ",5.93,0.89,0.410,55,0.75, 
28719,05/27/1995,"0715      ",5.95,1.00,0.300,57,1.00, 
28720,05/28/1995,"0655      ",5.89,0.90,0.420,51,0.80, 
28721,05/29/1995,"0710      ",5.90,0.91,0.430,50,0.84, 
28722,05/30/1995,"0729      ",5.92,0.90,0.430,48,0.77, 
28723,05/31/1995,"0725      ",5.90,0.91,0.420,49,0.80, 
28724,06/01/1995,"0722      ",5.82,0.94,0.430,46,0.82, 
28725,06/02/1995,"0645      ",5.79,0.98,0.450,64,1.40, 
28726,06/03/1995,"0715      ",5.91,0.95,0.390,46,0.75, 
28727,06/04/1995,"0655      ",5.94,0.94,0.560,48,0.80, 
28728,06/05/1995,"0705      ",5.92,0.99,0.480,45,0.87, 
28729,06/06/1995,"0705      ",5.91,0.98,0.480,45,0.87, 
28730,06/07/1995,"0724      ",5.92,0.97,0.350,46,0.85, 
28731,06/08/1995,"0651      ",5.94,0.94,0.430,49,0.95, 
28732,06/09/1995,"0700      ",5.93,0.94,0.420,51,1.00, 
28733,06/10/1995,"0700      ",5.86,1.04,0.360,41,1.50, 
28734,06/11/1995,"0640      ",6.03,1.29,0.580,89,2.00, 
28735,06/12/1995,"0658      ",5.84,1.11,0.500,77,1.00, 
28736,06/13/1995,"0653      ",5.86,1.04,0.430,69,0.98, 
28737,06/14/1995,"0720      ",5.73,1.13,0.570,67,1.45, 
28738,06/15/1995,"0725      ",5.89,1.27,0.580,83,1.59, 
28739,06/16/1995,"0657      ",5.74,0.98,0.400,75,0.96, 
28740,06/17/1995,"0710      ",5.76,0.99,0.340,75,0.90, 
28741,06/18/1995,"0655      ",5.81,1.08,0.500,82,1.50, 
28742,06/19/1995,"0643      ",5.92,1.01,0.460,73,0.93, 
28743,06/20/1995,"0700      ",5.79,1.04,0.450,67,0.99, 
28744,06/21/1995,"0714      ",5.73,1.03,0.500,59,0.86, 
28745,06/22/1995,"0655      ",5.83,1.08,0.510,58,0.96, 
28746,06/23/1995,"0728      ",5.90,1.08,0.520,54,0.81, 
28747,06/24/1995,"0730      ",5.67,1.07,0.440,56,0.95, 
28748,06/25/1995,"0650      ",5.91,1.12,0.610,50,0.80, 
28749,06/26/1995,"0734      ",5.69,1.17,0.550,55,1.00, 
28750,06/27/1995,"0651      ",5.79,1.15,0.640,48,0.82, 
28751,06/28/1995,"0810      ",5.75,1.15,0.580,44,0.82, 
28752,06/29/1995,"0735      ",5.69,0.29,0.220,45,0.53, 
28753,06/30/1995,"0725      ",5.78,0.45,0.370,51,1.00, 
28754,07/01/1995,"0715      ",5.75,0.56,0.140,52,1.10, 
28755,07/02/1995,"0650      ",5.87,1.03,0.240,61,2.50, 
28756,07/03/1995,"0709      ",5.69,0.31,0.230,32,0.61, 
28757,07/04/1995,"0710      ",5.66,0.33,0.180,30,0.58, 
28758,07/05/1995,"0655      ",5.73,0.37,0.160,33,0.75, 
28759,07/06/1995,"0653      ",5.77,0.57,0.160,35,1.00, 
28760,07/07/1995,"0713      ",5.85,0.38,0.180,28,0.72, 
28761,07/08/1995,"0700      ",5.85,0.35,0.100,28,0.60, 
28762,07/09/1995,"0640      ",6.35,1.90,0.210,54,2.30, 
28763,07/10/1995,"0650      ",5.79,0.32,0.120,24,0.60, 
28764,07/11/1995,"0702      ",5.60,0.29,0.210,13,0.49, 
28765,07/12/1995,"0800      ",5.89,0.31,0.240,23,0.61, 
28766,07/13/1995,"0652      ",5.28,0.29,0.200,20,0.61, 
28767,07/14/1995,"0715      ",5.83,0.31,0.170,22,0.61, 
28768,07/15/1995,"0650      ",5.89,1.16,0.750,38,0.70, 
28769,07/16/1995,"0640      ",5.81,1.06,0.700,22,0.50, 
28770,07/17/1995,"0653      ",5.98,1.04,0.750,20,0.59, 
28771,07/18/1995,"0710      ",5.91,0.98,0.430,20,0.67, 
28772,07/19/1995,"0703      ",6.07,0.99,0.700,24,0.54, 
28773,07/20/1995,"0715      ",6.07,1.60,0.800,20,0.63, 
28774,07/21/1995,"0900      ",5.92,1.00,0.750,25,0.50, 
28775,07/22/1995,"0703      ",5.91,1.08,0.520,23,0.51, 
28776,07/23/1995,"0650      ",5.92,1.31,0.930,31,1.50, 
28777,07/24/1995,"0755      ",5.76,1.10,0.900,20,0.78, 
28778,07/25/1995,"0704      ",5.98,1.10,0.700,25,0.71, 
28779,07/26/1995,"0730      ",6.05,1.80,0.600,35,1.80, 
28780,07/27/1995,"0725      ",6.06,0.45,0.700,20,2.40, 
28781,07/28/1995,"0715      ",5.91,1.15,0.780,20,0.87, 
28782,07/29/1995,"0720      ",5.93,1.24,0.800,37,0.95, 
28783,07/30/1995,"0640      ",5.85,1.29,0.870,28,1.00, 
28784,07/31/1995,"0730      ",5.83,1.41,0.880,43,1.80, 
28785,08/01/1995,"0740      ",5.84,1.25,0.910,26,0.90, 
28786,08/02/1995,"0735      ",5.90,1.25,0.900,26,1.30, 
28787,08/03/1995,"0810      ",5.91,1.17,0.770,23,0.86, 
28788,08/04/1995,"1050      ",6.07,1.05,0.570,23,0.85, 
28789,08/05/1995,"0800      ",5.89,1.19,0.710,22,0.72, 
28790,08/06/1995,"0635      ",5.91,1.29,0.980,27,0.80, 
28791,08/07/1995,"0745      ",5.85,1.28,0.850,24,0.80, 
28792,08/08/1995,"0725      ",6.03,1.47,0.820,34,1.60, 
28793,08/09/1995,"0840      ",5.82,1.16,0.730,27,0.86, 
28794,08/10/1995,"0725      ",5.91,1.17,0.800,25,0.72, 
28795,08/11/1995,"0742      ",5.89,1.16,0.710,22,0.70, 
28796,08/12/1995,"0735      ",5.98,1.15,0.640,25,0.65, 
28797,08/13/1995,"0645      ",5.97,1.19,0.700,25,0.70, 
28798,08/14/1995,"0755      ",5.93,1.10,0.790,25,0.50, 
28799,08/15/1995,"0652      ",5.83,1.16,0.720,24,0.71, 
28800,08/16/1995,"0654      ",5.84,1.17,0.560,22,0.69, 
28801,08/17/1995,"0644      ",5.93,1.25,0.800,24,0.84, 
28802,08/18/1995,"0644      ",5.95,1.21,0.790,22,0.74, 
28803,08/19/1995,"0650      ",5.91,1.34,0.480,33,1.40, 
28804,08/20/1995,"0755      ",5.85,1.14,0.820,25,0.50, 
28805,08/21/1995,"0644      ",6.05,1.39,0.810,22,0.99, 
28806,08/22/1995,"0653      ",6.08,1.55,0.880,30,1.30, 
28807,08/23/1995,"0651      ",5.89,1.28,0.810,22,0.77, 
28808,08/24/1995,"0648      ",5.95,1.32,0.880,22,0.79, 
28809,08/25/1995,"0745      ",5.93,1.34,0.900,24,0.96, 
28810,08/26/1995,"0830      ",5.94,1.28,0.770,22,0.70, 
28811,08/27/1995,"1020      ",5.92,1.58,0.920,34,1.40, 
28812,08/28/1995,"0753      ",6.00,1.30,0.980,23,0.86, 
28813,08/29/1995,"0725      ",5.95,1.29,0.850,19,1.09, 
28814,08/30/1995,"0740      ",5.91,1.02,0.830,20,2.57, 
28815,08/31/1995,"0710      ",5.98,1.25,0.850,19,0.81, 
28816,09/01/1995,"0658      ",6.96,1.30,0.890,20,0.95, 
28817,09/02/1995,"0930      ",6.22,1.25,0.750,21,0.85, 
28818,09/03/1995,"0935      ",6.17,1.09,0.680,18,0.76, 
28819,09/04/1995,"1020      ",6.08,1.29,0.720,20,0.86, 
28820,09/05/1995,"0810      ",6.32,1.28,0.790,20,0.79, 
28821,09/06/1995,"0720      ",6.13,1.35,0.880,19,0.94, 
28822,09/07/1995,"0730      ",5.98,1.38,0.920,21,1.06, 
28823,09/08/1995,"0646      ",5.99,1.41,0.950,21,0.95, 
28824,09/09/1995,"0700      ",5.97,1.33,0.720,20,0.71, 
28825,09/10/1995,"0830      ",5.99,1.81,1.060,37,3.00, 
28826,09/11/1995,"0642      ",5.97,1.40,0.880,19,1.06, 
28827,09/12/1995,"0705      ",5.97,1.38,0.880,18,0.60, 
28828,09/13/1995,"0654      ",5.97,1.36,0.570,18,0.99, 
28829,09/14/1995,"1225      ",6.01,1.41,0.800,26,0.94, 
28830,09/15/1995,"0655      ",6.03,1.54,0.950,25,1.48, 
28831,09/16/1995,"0910      ",5.96,1.39,0.900,22,1.48, 
28832,09/17/1995,"1050      ",6.00,1.24,0.860,18,1.37, 
28833,09/18/1995,"0649      ",5.97,1.43,0.700,23,0.97, 
28834,09/19/1995,"0647      ",5.96,1.39,0.860,24,1.31, 
28835,09/20/1995,"0645      ",5.92,1.38,0.750,24,1.25, 
28836,09/21/1995,"0701      ",5.95,1.36,0.860,24,0.90, 
28837,09/22/1995,"0703      ",5.96,1.35,0.890,22,1.04, 
28838,09/23/1995,"0900      ",5.99,1.29,0.840,21,1.03, 
28839,09/24/1995,"0900      ",6.03,1.35,0.850,25,0.98, 
28840,09/25/1995,"0711      ",5.86,1.29,0.880,23,1.10, 
28841,09/26/1995,"0656      ",5.94,1.27,0.600,21,1.05, 
28842,09/27/1995,"0716      ",5.92,1.30,0.760,23,0.86, 
28843,09/28/1995,"0700      ",5.98,1.40,0.890,27,1.95, 
28844,09/29/1995,"0707      ",6.00,1.27,0.870,20,0.69, 
28845,09/30/1995,"0940      ",5.99,1.27,0.510,46,1.27, 
28846,10/01/1995,"0945      ",6.04,1.36,0.610,65,1.35, 
28847,10/02/1995,"0710      ",5.96,1.29,0.950,20,0.82, 
28848,10/03/1995,"0730      ",5.87,1.29,0.740,23,0.96, 
28849,10/04/1995,"0700      ",5.89,1.32,0.800,23,0.72, 
28850,10/05/1995,"0700      ",5.92,1.32,0.930,21,0.87, 
28851,10/06/1995,"0715      ",6.01,1.31,0.910,19,0.61, 
28852,10/07/1995,"0955      ",5.87,0.94,0.570,24,1.14, 
28853,10/08/1995,"1215      ",6.16,1.32,0.560,34,2.83, 
28854,10/09/1995,"0810      ",5.82,1.16,0.740,31,1.23, 
28855,10/10/1995,"0750      ",5.86,0.98,0.540,37,1.62, 
28856,10/11/1995,"0647      ",5.88,1.25,0.690,36,1.34, 
28857,10/12/1995,"0700      ",5.86,1.10,0.650,31,0.75, 
28858,10/13/1995,"0700      ",5.91,1.17,0.690,33,0.62, 
28859,10/14/1995,"0915      ",5.89,1.18,0.630,33,1.09, 
28860,10/15/1995,"0950      ",5.94,1.20,0.680,38,1.32, 
28861,10/16/1995,"0650      ",5.89,1.11,0.650,29,0.68, 
28862,10/17/1995,"0800      ",5.80,1.09,0.470,46,2.47, 
28863,10/18/1995,"0815      ",5.82,1.20,0.680,34,1.19, 
28864,10/19/1995,"0655      ",5.91,1.27,0.620,39,1.01, 
28865,10/20/1995,"0807      ",5.88,1.25,0.640,42,1.18, 
28866,10/21/1995,"0920      ",5.84,1.23,0.480,57,2.29, 
28867,10/22/1995,"1230      ",5.92,1.34,0.550,43,1.67, 
28868,10/23/1995,"0705      ",5.85,1.17,0.220,38,0.68, 
28869,10/24/1995,"0650      ",5.87,1.20,0.590,41,1.09, 
28870,10/25/1995,"0659      ",5.87,1.23,0.660,52,0.97, 
28871,10/26/1995,"0705      ",5.88,1.24,0.630,53,1.05, 
28872,10/27/1995,"0815      ",5.88,1.10,0.580,50,1.22, 
28873,10/28/1995,"1230      ",5.88,1.18,0.160,55,1.28, 
28874,10/29/1995,"0830      ",5.89,1.19,0.530,57,1.18, 
28875,10/30/1995,"0735      ",6.15,1.14,0.450,61,0.84, 
28876,10/31/1995,"0705      ",5.99,1.21,0.600,64,1.29, 
28877,11/01/1995,"0720      ",5.86,1.41,0.490,81,4.20, 
28878,11/02/1995,"0726      ",5.85,1.15,0.620,59,0.82, 
28879,11/03/1995,"0704      ",5.87,1.10,0.650,59,0.76, 
28880,11/04/1995,"0855      ",5.83,0.96,0.390,82,2.01, 
28881,11/05/1995,"0930      ",5.85,1.04,0.410,64,1.04, 
28882,11/06/1995,"0739      ",5.89,1.13,0.640,62,0.62, 
28883,11/07/1995,"0700      ",5.88,1.08,0.610,62,0.67, 
28884,11/08/1995,"0709      ",5.81,1.09,0.670,60,1.64, 
28885,11/09/1995,"0726      ",5.77,1.07,0.560,61,0.66, 
28886,11/10/1995,"0945      ",5.87,1.25,0.500,69,0.86, 
28887,11/11/1995,"1200      ",5.75,1.72,0.450,96,3.24, 
28888,11/12/1995,"1035      ",5.83,1.53,0.480,84,2.92, 
28889,11/13/1995,"0707      ",5.84,1.05,0.660,66,0.58, 
28890,11/14/1995,"1925      ",6.01,1.10,0.560,71,0.53, 
28891,11/15/1995,"0645      ",5.90,0.95,0.600,69,0.78, 
28892,11/16/1995,"0800      ",5.79,1.01,0.600,69,1.01, 
28893,11/17/1995,"0805      ",5.89,1.06,0.600,74,0.60, 
28894,11/18/1995,"1015      ",5.92,1.06,0.400,80,1.37, 
28895,11/19/1995,"0710      ",5.85,1.33,0.550,63,1.12, 
28896,11/20/1995,"1314      ",5.84,1.03,0.490,78,1.00, 
28897,11/21/1995,"0658      ",5.84,1.00,0.540,81,1.01, 
28898,11/22/1995,"0750      ",5.87,1.07,0.500,82,1.79, 
28899,11/23/1995,"0855      ",5.85,0.96,0.510,77,1.09, 
28900,11/24/1995,"0840      ",5.95,0.99,0.540,79,0.84, 
28901,11/25/1995,"1000      ",5.89,1.01,0.240,83,1.10, 
28902,11/26/1995,"0750      ",5.92,0.98,0.390,77,1.02, 
28903,11/27/1995,"0700      ",5.93,1.04,0.520,84,1.33, 
28904,11/28/1995,"0735      ",5.92,0.97,0.520,81,0.66, 
28905,11/29/1995,"0835      ",5.81,0.98,0.280,84,1.04, 
28906,11/30/1995,"0710      ",5.89,0.88,0.200,80,0.79, 
28907,12/01/1995,"0820      ",5.89,0.95,0.380,85,1.12, 
28908,12/02/1995,"1020      ",5.87,0.91,0.130,84,1.04, 
28909,12/03/1995,"0715      ",5.90,0.91,0.210,87,1.12, 
28910,12/04/1995,"0806      ",5.90,0.87,0.420,79,1.05, 
28911,12/05/1995,"0715      ",5.85,0.88,0.480,79,0.67, 
28912,12/06/1995,"0740      ",5.87,0.93,0.430,78,1.01, 
28913,12/07/1995,"0706      ",5.88,0.88,0.510,76,0.72, 
28914,12/08/1995,"1040      ",5.79,0.88,0.350,76,0.81, 
28915,12/09/1995,"0745      ",5.83,0.83,0.400,75,0.81, 
28916,12/10/1995,"0905      ",5.87,0.87,0.420,77,0.91, 
28917,12/11/1995,"0703      ",5.88,0.85,0.530,73,0.63, 
28918,12/12/1995,"0708      ",5.72,0.90,0.540,75,0.67, 
28919,12/13/1995,"0720      ",5.75,0.89,0.410,73,1.18, 
28920,12/14/1995,"0727      ",6.03,0.87,0.520,71,0.77, 
28921,12/15/1995,"0727      ",5.49,0.88,0.440,71,0.59, 
28922,12/16/1995,"0930      ",6.01,0.92,0.160,73,0.71, 
28923,12/17/1995,"0820      ",5.92,0.86,0.380,70,0.67, 
28924,12/18/1995,"0730      ",5.84,0.90,0.400,71,0.76, 
28925,12/19/1995,"0710      ",5.61,0.92,0.530,70,0.69, 
28926,12/20/1995,"0815      ",5.37,0.91,0.480,68,0.60, 
28927,12/21/1995,"0710      ",5.79,0.94,0.760,71,0.77, 
28928,12/22/1995,"0710      ",5.89,0.87,0.400,68,0.72, 
28929,12/23/1995,"0945      ",5.88,0.86,0.440,68,0.66, 
28930,12/24/1995,"1110      ",5.93,0.82,0.490,72,0.76, 
28931,12/25/1995,"0930      ",6.01,0.91,0.340,67,0.69, 
28932,12/26/1995,"0719      ",5.98,0.88,0.530,65,0.60, 
28933,12/27/1995,"0629      ",5.83,0.85,0.530,64,0.43, 
28934,12/28/1995,"0735      ",5.82,0.80,0.210,68,1.08, 
28935,12/29/1995,"0709      ",5.82,0.89,0.530,62,0.72, 
28936,12/30/1995,"1045      ",5.88,0.88,0.420,62,0.51, 
28937,12/31/1995,"0845      ",5.79,0.88,0.360,67,0.68, 
Total Samples:, , ,354,354,354,354,354

Average Value:, , ,5.90,0.98,0.490,50.5,0.87
